| time (UTC) | temp F | wind direction | speed MPH | gust MPH | rain 1hr in | rain 24hr in | rain mn in | humidity % | barometer mb |
| 20260504201834 | 0 | 197 | 0.0 | 3.0 | 0.00 | 0.00 | 0.00 | 1001.0 | |
| 20260504201632 | 0 | 197 | 0.0 | 3.0 | 0.00 | 0.00 | 0.00 | 1001.0 | |
| 20260504201526 | 0 | 197 | 0.0 | 3.0 | 0.00 | 0.00 | 0.00 | 1000.9 | |
| 20260504201424 | 61 | 197 | 0.0 | 9.0 | 0.00 | 0.00 | 0.00 | 43 | 1001.0 |
| 20260504201306 | 61 | 235 | 0.0 | 11.0 | 0.00 | 0.00 | 0.00 | 43 | 1000.9 |
| 20260504201250 | 61 | 197 | 0.0 | 11.0 | 0.00 | 0.00 | 0.00 | 43 | 1000.9 |
| 20260504201006 | 61 | 235 | 0.0 | 11.0 | 0.00 | 0.00 | 0.00 | 43 | 1000.9 |
| 20260504200807 | 61 | 235 | 0.0 | 11.0 | 0.00 | 0.00 | 0.00 | 43 | 1001.0 |
| 20260504200519 | 61 | 235 | 0.0 | 11.0 | 0.00 | 0.00 | 0.00 | 43 | 1000.8 |
| 20260504200425 | 61 | 283 | 0.0 | 10.0 | 0.00 | 0.00 | 0.00 | 44 | 1000.9 |
| 20260504200313 | 61 | 240 | 0.0 | 13.0 | 0.00 | 0.00 | 0.00 | 45 | 1000.8 |
| 20260504200244 | 61 | 217 | 0.0 | 13.0 | 0.00 | 0.00 | 0.00 | 43 | 1000.8 |
| 20260504195923 | 62 | 323 | 0.0 | 13.0 | 0.00 | 0.00 | 0.00 | 45 | 1000.8 |
| 20260504195727 | 62 | 323 | 0.0 | 13.0 | 0.00 | 0.00 | 0.00 | 45 | 1000.4 |
| 20260504195524 | 62 | 281 | 0.0 | 13.0 | 0.00 | 0.00 | 0.00 | 47 | 1000.7 |
| 20260504195315 | 62 | 228 | 0.0 | 12.0 | 0.00 | 0.00 | 0.00 | 44 | 1000.9 |
| 20260504195110 | 62 | 261 | 0.0 | 12.0 | 0.00 | 0.00 | 0.00 | 44 | 1000.8 |
| 20260504195020 | 62 | 257 | 0.0 | 11.0 | 0.00 | 0.00 | 0.00 | 48 | 1000.8 |
| 20260504194903 | 62 | 154 | 0.0 | 11.0 | 0.00 | 0.00 | 0.00 | 48 | 1000.8 |
| 20260504194807 | 62 | 110 | 0.0 | 14.0 | 0.00 | 0.00 | 0.00 | 45 | 1000.8 |
| 20260504194506 | 62 | 265 | 0.0 | 14.0 | 0.00 | 0.00 | 0.00 | 48 | 1000.8 |
| 20260504194310 | 60 | 254 | 0.0 | 14.0 | 0.00 | 0.00 | 0.00 | 48 | 1000.7 |
| 20260504194305 | 61 | 248 | 0.0 | 14.0 | 0.00 | 0.00 | 0.00 | 48 | 1000.7 |
| 20260504194232 | 61 | 278 | 0.0 | 14.0 | 0.00 | 0.00 | 0.00 | 47 | 1000.7 |
| 20260504193901 | 60 | 237 | 0.0 | 14.0 | 0.00 | 0.00 | 0.00 | 45 | 1000.7 |
| 20260504193701 | 61 | 271 | 0.0 | 7.0 | 0.00 | 0.00 | 0.00 | 43 | 1000.6 |
| 20260504193502 | 62 | 259 | 0.0 | 13.0 | 0.00 | 0.00 | 0.00 | 45 | 1000.6 |
| 20260504193349 | 62 | 172 | 0.0 | 13.0 | 0.00 | 0.00 | 0.00 | 45 | 1000.3 |
| 20260504193256 | 62 | 97 | 0.0 | 14.0 | 0.00 | 0.00 | 0.00 | 46 | 1000.4 |
| 20260504193223 | 62 | 327 | 0.0 | 13.0 | 0.00 | 0.00 | 0.00 | 46 | 1000.6 |
| 20260504192835 | 62 | 85 | 0.0 | 14.0 | 0.00 | 0.00 | 0.00 | 48 | 1000.4 |
| 20260504192637 | 62 | 219 | 0.0 | 14.0 | 0.00 | 0.00 | 0.00 | 49 | 1000.4 |
| 20260504192501 | 62 | 231 | 0.0 | 18.0 | 0.00 | 0.00 | 0.00 | 47 | 1000.6 |
| 20260504192431 | 61 | 216 | 0.0 | 18.0 | 0.00 | 0.00 | 0.00 | 47 | 1000.6 |
| 20260504192304 | 61 | 237 | 0.0 | 18.0 | 0.00 | 0.00 | 0.00 | 44 | 1000.3 |
| 20260504192255 | 61 | 138 | 0.0 | 18.0 | 0.00 | 0.00 | 0.00 | 44 | 1000.4 |
| 20260504192222 | 61 | 243 | 0.0 | 18.0 | 0.00 | 0.00 | 0.00 | 44 | 1000.4 |
| 20260504191822 | 61 | 237 | 0.0 | 18.0 | 0.00 | 0.00 | 0.00 | 44 | 1000.3 |
| 20260504191716 | 62 | 244 | 0.0 | 18.0 | 0.00 | 0.00 | 0.00 | 45 | 1000.2 |
| 20260504191506 | 62 | 250 | 0.0 | 12.0 | 0.00 | 0.00 | 0.00 | 45 | 1000.2 |
| 20260504191420 | 62 | 250 | 0.0 | 12.0 | 0.00 | 0.00 | 0.00 | 45 | 1000.2 |
| 20260504191213 | 62 | 230 | 0.0 | 12.0 | 0.00 | 0.00 | 0.00 | 45 | 1000.2 |
| 20260504191011 | 62 | 233 | 0.0 | 12.0 | 0.00 | 0.00 | 0.00 | 46 | 1000.2 |
| 20260504190938 | 62 | 276 | 0.0 | 12.0 | 0.00 | 0.00 | 0.00 | 45 | 1000.2 |
| 20260504190808 | 62 | 274 | 0.0 | 10.0 | 0.00 | 0.00 | 0.00 | 45 | 1000.2 |
| 20260504190607 | 61 | 252 | 0.0 | 18.0 | 0.00 | 0.00 | 0.00 | 48 | 1000.2 |
| 20260504190506 | 61 | 247 | 0.0 | 18.0 | 0.00 | 0.00 | 0.00 | 46 | 1000.2 |
| 20260504190431 | 61 | 247 | 0.0 | 18.0 | 0.00 | 0.00 | 0.00 | 45 | 1000.2 |
| 20260504190229 | 60 | 261 | 0.0 | 18.0 | 0.00 | 0.00 | 0.00 | 46 | 1000.3 |
| 20260504190222 | 60 | 250 | 0.0 | 18.0 | 0.00 | 0.00 | 0.00 | 47 | 1000.3 |
| 20260504190149 | 60 | 282 | 0.0 | 18.0 | 0.00 | 0.00 | 0.00 | 45 | 1000.3 |
| 20260504185807 | 60 | 279 | 0.0 | 18.0 | 0.00 | 0.00 | 0.00 | 45 | 1000.4 |
| 20260504185609 | 60 | 258 | 0.0 | 17.0 | 0.00 | 0.00 | 0.00 | 43 | 1000.3 |
| 20260504185423 | 60 | 251 | 0.0 | 14.0 | 0.00 | 0.00 | 0.00 | 45 | 1000.4 |
| 20260504185406 | 60 | 264 | 0.0 | 14.0 | 0.00 | 0.00 | 0.00 | 45 | 1000.3 |
| 20260504185220 | 60 | 221 | 0.0 | 15.0 | 0.00 | 0.00 | 0.00 | 42 | 1000.2 |
| 20260504185215 | 60 | 196 | 0.0 | 14.0 | 0.00 | 0.00 | 0.00 | 45 | 1000.2 |
| 20260504185147 | 60 | 221 | 0.0 | 9.0 | 0.00 | 0.00 | 0.00 | 42 | 1000.2 |
| 20260504184858 | 60 | 221 | 0.0 | 15.0 | 0.00 | 0.00 | 0.00 | 42 | 1000.3 |
| 20260504184531 | 60 | 221 | 0.0 | 15.0 | 0.00 | 0.00 | 0.00 | 42 | 1000.1 |
| 20260504184408 | 60 | 221 | 0.0 | 15.0 | 0.00 | 0.00 | 0.00 | 42 | 1000.1 |
| 20260504184331 | 60 | 221 | 0.0 | 15.0 | 0.00 | 0.00 | 0.00 | 42 | 1000.1 |
| 20260504184210 | 60 | 254 | 0.0 | 18.0 | 0.00 | 0.00 | 0.00 | 44 | 1000.2 |
| 20260504184156 | 60 | 217 | 0.0 | 18.0 | 0.00 | 0.00 | 0.00 | 42 | 1000.0 |
| 20260504184124 | 60 | 254 | 0.0 | 18.0 | 0.00 | 0.00 | 0.00 | 44 | 1000.2 |
| 20260504183709 | 60 | 261 | 0.0 | 18.0 | 0.00 | 0.00 | 0.00 | 41 | 1000.1 |
| 20260504183509 | 60 | 259 | 0.0 | 18.0 | 0.00 | 0.00 | 0.00 | 42 | 1000.0 |
| 20260504183409 | 60 | 278 | 0.0 | 18.0 | 0.00 | 0.00 | 0.00 | 41 | 1000.0 |
| 20260504183310 | 60 | 258 | 0.0 | 13.0 | 0.00 | 0.00 | 0.00 | 41 | 1000.1 |
| 20260504183209 | 61 | 262 | 0.0 | 14.0 | 0.00 | 0.00 | 0.00 | 44 | 1000.0 |
| 20260504182910 | 61 | 271 | 0.0 | 14.0 | 0.00 | 0.00 | 0.00 | 40 | 1000.0 |
| 20260504182710 | 62 | 313 | 0.0 | 14.0 | 0.00 | 0.00 | 0.00 | 40 | 999.8 |
| 20260504182511 | 62 | 313 | 0.0 | 16.0 | 0.00 | 0.00 | 0.00 | 40 | 999.9 |
| 20260504182420 | 62 | 233 | 0.0 | 16.0 | 0.00 | 0.00 | 0.00 | 42 | 999.9 |
| 20260504182411 | 62 | 261 | 0.0 | 16.0 | 0.00 | 0.00 | 0.00 | 41 | 999.8 |
| 20260504182110 | 63 | 243 | 0.0 | 16.0 | 0.00 | 0.00 | 0.00 | 42 | 999.8 |
| 20260504181909 | 63 | 244 | 0.0 | 16.0 | 0.00 | 0.00 | 0.00 | 46 | 999.7 |
| 20260504181709 | 63 | 252 | 0.0 | 16.0 | 0.00 | 0.00 | 0.00 | 39 | 999.7 |
| 20260504181610 | 62 | 116 | 0.0 | 10.0 | 0.00 | 0.00 | 0.00 | 40 | 999.5 |
| 20260504181408 | 62 | 142 | 0.0 | 10.0 | 0.00 | 0.00 | 0.00 | 40 | 999.7 |
| 20260504181309 | 62 | 142 | 0.0 | 10.0 | 0.00 | 0.00 | 0.00 | 40 | 999.7 |
| 20260504181108 | 63 | 245 | 0.0 | 10.0 | 0.00 | 0.00 | 0.00 | 40 | 999.7 |
| 20260504180918 | 63 | 295 | 0.0 | 10.0 | 0.00 | 0.00 | 0.00 | 40 | 999.7 |
| 20260504180904 | 63 | 269 | 0.0 | 10.0 | 0.00 | 0.00 | 0.00 | 40 | 999.6 |
| 20260504180709 | 64 | 243 | 0.0 | 10.0 | 0.00 | 0.00 | 0.00 | 44 | 999.5 |
| 20260504180509 | 64 | 209 | 0.0 | 10.0 | 0.00 | 0.00 | 0.00 | 45 | 999.5 |
| 20260504180402 | 64 | 261 | 0.0 | 10.0 | 0.00 | 0.00 | 0.00 | 43 | 999.4 |
| 20260504180310 | 64 | 179 | 0.0 | 10.0 | 0.00 | 0.00 | 0.00 | 44 | 999.4 |
| 20260504180109 | 64 | 247 | 0.0 | 10.0 | 0.00 | 0.00 | 0.00 | 42 | 999.3 |
| 20260504180017 | 65 | 240 | 0.0 | 9.0 | 0.00 | 0.00 | 0.00 | 46 | 999.1 |
| 20260504175902 | 65 | 240 | 0.0 | 10.0 | 0.00 | 0.00 | 0.00 | 46 | 999.1 |
| 20260504175710 | 64 | 109 | 0.0 | 10.0 | 0.00 | 0.00 | 0.00 | 45 | 999.1 |
| 20260504175510 | 64 | 241 | 0.0 | 10.0 | 0.00 | 0.00 | 0.00 | 43 | 999.3 |
| 20260504175403 | 64 | 217 | 0.0 | 11.0 | 0.00 | 0.00 | 0.00 | 41 | 999.2 |
| 20260504175310 | 65 | 217 | 0.0 | 11.0 | 0.00 | 0.00 | 0.00 | 44 | 999.2 |
| 20260504175109 | 64 | 189 | 0.0 | 11.0 | 0.00 | 0.00 | 0.00 | 46 | 999.1 |
| 20260504174916 | 64 | 261 | 0.0 | 11.0 | 0.00 | 0.00 | 0.00 | 45 | 999.2 |
| 20260504174901 | 64 | 241 | 0.0 | 11.0 | 0.00 | 0.00 | 0.00 | 45 | 999.2 |
| 20260504174716 | 64 | 254 | 0.0 | 11.0 | 0.00 | 0.00 | 0.00 | 43 | 999.2 |
| 20260504174711 | 64 | 259 | 0.0 | 11.0 | 0.00 | 0.00 | 0.00 | 45 | 999.2 |
| 20260504174701 | 64 | 240 | 0.0 | 11.0 | 0.00 | 0.00 | 0.00 | 47 | 999.2 |
| 20260504174639 | 64 | 245 | 0.0 | 11.0 | 0.00 | 0.00 | 0.00 | 47 | 999.1 |
| 20260504174110 | 64 | 272 | 0.0 | 11.0 | 0.00 | 0.00 | 0.00 | 44 | 999.1 |
| 20260504173915 | 64 | 230 | 0.0 | 11.0 | 0.00 | 0.00 | 0.00 | 46 | 999.0 |
| 20260504173903 | 64 | 230 | 0.0 | 11.0 | 0.00 | 0.00 | 0.00 | 46 | 999.1 |
| 20260504173710 | 64 | 230 | 0.0 | 11.0 | 0.00 | 0.00 | 0.00 | 46 | 999.1 |
| 20260504173513 | 64 | 210 | 0.0 | 9.0 | 0.00 | 0.00 | 0.00 | 47 | 999.0 |
| 20260504173352 | 64 | 250 | 0.0 | 9.0 | 0.00 | 0.00 | 0.00 | 46 | 999.0 |
| 20260504173308 | 0 | 219 | 0.0 | 4.0 | 0.00 | 0.00 | 0.00 | 999.0 | |
| 20260504173107 | 64 | 219 | 0.0 | 5.0 | 0.00 | 0.00 | 0.00 | 48 | 999.0 |
| 20260504173011 | 64 | 219 | 0.0 | 7.0 | 0.00 | 0.00 | 0.00 | 48 | 998.9 |
| 20260504172852 | 64 | 219 | 0.0 | 7.0 | 0.00 | 0.00 | 0.00 | 48 | 998.9 |
| 20260504172705 | 64 | 219 | 0.0 | 7.0 | 0.00 | 0.00 | 0.00 | 48 | 999.0 |
| 20260504172505 | 64 | 219 | 0.0 | 7.0 | 0.00 | 0.00 | 0.00 | 48 | 999.0 |
| 20260504172352 | 64 | 219 | 0.0 | 7.0 | 0.00 | 0.00 | 0.00 | 48 | 999.0 |
| 20260504172304 | 64 | 248 | 0.0 | 10.0 | 0.00 | 0.00 | 0.00 | 48 | 999.0 |
| 20260504172107 | 64 | 240 | 0.0 | 13.0 | 0.00 | 0.00 | 0.00 | 47 | 998.9 |
| 20260504171907 | 64 | 281 | 0.0 | 13.0 | 0.00 | 0.00 | 0.00 | 47 | 998.9 |
| 20260504171850 | 64 | 281 | 0.0 | 13.0 | 0.00 | 0.00 | 0.00 | 48 | 998.9 |
| 20260504171707 | 63 | 259 | 0.0 | 15.0 | 0.00 | 0.00 | 0.00 | 48 | 998.9 |
| 20260504171454 | 63 | 230 | 0.0 | 15.0 | 0.00 | 0.00 | 0.00 | 49 | 999.0 |
| 20260504171356 | 63 | 237 | 0.0 | 15.0 | 0.00 | 0.00 | 0.00 | 45 | 999.0 |
| 20260504171352 | 63 | 244 | 0.0 | 15.0 | 0.00 | 0.00 | 0.00 | 46 | 999.0 |
| 20260504171053 | 64 | 258 | 0.0 | 15.0 | 0.00 | 0.00 | 0.00 | 49 | 998.8 |
| 20260504170853 | 64 | 258 | 0.0 | 15.0 | 0.00 | 0.00 | 0.00 | 49 | 999.0 |
| 20260504170654 | 64 | 151 | 0.0 | 7.0 | 0.00 | 0.00 | 0.00 | 50 | 998.8 |
| 20260504170645 | 64 | 243 | 0.0 | 13.0 | 0.00 | 0.00 | 0.00 | 50 | 998.9 |
| 20260504170625 | 64 | 243 | 0.0 | 7.0 | 0.00 | 0.00 | 0.00 | 50 | 998.8 |
| 20260504170257 | 64 | 243 | 0.0 | 17.0 | 0.00 | 0.00 | 0.00 | 50 | 998.9 |
| 20260504160337 | 63 | 238 | 0.0 | 6.0 | 0.00 | 0.00 | 0.00 | 46 | 998.7 |
| 20260504160155 | 63 | 261 | 0.0 | 11.0 | 0.00 | 0.00 | 0.00 | 47 | 998.8 |
| 20260504160120 | 63 | 261 | 0.0 | 14.0 | 0.00 | 0.00 | 0.00 | 47 | 998.7 |
| 20260504150928 | 61 | 240 | 0.0 | 9.0 | 0.00 | 0.00 | 0.00 | 49 | 998.7 |
| 20260504150814 | 61 | 272 | 0.0 | 9.0 | 0.00 | 0.00 | 0.00 | 49 | 998.7 |
| 20260504150712 | 60 | 290 | 0.0 | 10.0 | 0.00 | 0.00 | 0.00 | 50 | 998.7 |
| 20260504150512 | 60 | 290 | 0.0 | 10.0 | 0.00 | 0.00 | 0.00 | 50 | 998.6 |
| 20260504150312 | 60 | 290 | 0.0 | 10.0 | 0.00 | 0.00 | 0.00 | 50 | 998.6 |
| 20260504150119 | 61 | 248 | 0.0 | 10.0 | 0.00 | 0.00 | 0.00 | 49 | 998.7 |
| 20260504141256 | 61 | 247 | 0.0 | 10.0 | 0.00 | 0.00 | 0.00 | 54 | 998.2 |
| 20260504141056 | 61 | 247 | 0.0 | 10.0 | 0.00 | 0.00 | 0.00 | 54 | 998.2 |
| 20260504140847 | 62 | 233 | 0.0 | 10.0 | 0.00 | 0.00 | 0.00 | 54 | 998.1 |
| 20260504140754 | 62 | 262 | 0.0 | 10.0 | 0.00 | 0.00 | 0.00 | 54 | 998.1 |
| 20260504140632 | 62 | 262 | 0.0 | 10.0 | 0.00 | 0.00 | 0.00 | 54 | 998.1 |
| 20260504140432 | 62 | 303 | 0.0 | 7.0 | 0.00 | 0.00 | 0.00 | 54 | 998.0 |
| 20260504140231 | 62 | 219 | 0.0 | 7.0 | 0.00 | 0.00 | 0.00 | 54 | 998.0 |
| 20260504130643 | 60 | 223 | 0.0 | 13.0 | 0.00 | 0.00 | 0.00 | 54 | 997.5 |
| 20260504130445 | 60 | 223 | 0.0 | 13.0 | 0.00 | 0.00 | 0.00 | 54 | 997.4 |
| 20260504130243 | 60 | 252 | 0.0 | 13.0 | 0.00 | 0.00 | 0.00 | 53 | 997.5 |
| 20260504130134 | 60 | 266 | 0.0 | 13.0 | 0.00 | 0.00 | 0.00 | 53 | 997.5 |
| 20260504120144 | 58 | 227 | 0.0 | 13.0 | 0.00 | 0.00 | 0.00 | 53 | 996.8 |
| 20260504110714 | 59 | 179 | 0.0 | 13.0 | 0.00 | 0.00 | 0.00 | 50 | 996.1 |
| 20260504110413 | 58 | 216 | 0.0 | 13.0 | 0.00 | 0.00 | 0.00 | 50 | 996.1 |
| 20260504110217 | 58 | 216 | 0.0 | 13.0 | 0.00 | 0.00 | 0.00 | 50 | 996.1 |
| 20260504100447 | 58 | 206 | 0.0 | 9.0 | 0.00 | 0.00 | 0.00 | 51 | 996.6 |
| 20260504100351 | 58 | 206 | 0.0 | 9.0 | 0.00 | 0.00 | 0.00 | 51 | 996.6 |
| 20260504100347 | 58 | 206 | 0.0 | 9.0 | 0.00 | 0.00 | 0.00 | 51 | 996.6 |
| 20260504081936 | 57 | 206 | 0.0 | 10.0 | 0.00 | 0.00 | 0.00 | 51 | 998.3 |
| 20260504081701 | 57 | 209 | 0.0 | 9.0 | 0.00 | 0.00 | 0.00 | 51 | 998.4 |
| 20260504081629 | 57 | 210 | 0.0 | 9.0 | 0.00 | 0.00 | 0.00 | 51 | 998.4 |
| 20260504081458 | 57 | 204 | 0.0 | 9.0 | 0.00 | 0.00 | 0.00 | 51 | 998.5 |
| 20260504081450 | 57 | 234 | 0.0 | 9.0 | 0.00 | 0.00 | 0.00 | 51 | 998.4 |
| 20260504081421 | 57 | 193 | 0.0 | 9.0 | 0.00 | 0.00 | 0.00 | 51 | 998.5 |
| 20260504081029 | 57 | 216 | 0.0 | 10.0 | 0.00 | 0.00 | 0.00 | 51 | 998.6 |
| 20260504080830 | 57 | 216 | 0.0 | 10.0 | 0.00 | 0.00 | 0.00 | 51 | 998.7 |
| 20260504080702 | 57 | 197 | 0.0 | 10.0 | 0.00 | 0.00 | 0.00 | 51 | 998.6 |
| 20260504080603 | 57 | 214 | 0.0 | 10.0 | 0.00 | 0.00 | 0.00 | 50 | 998.5 |
| 20260504080448 | 57 | 212 | 0.0 | 10.0 | 0.00 | 0.00 | 0.00 | 50 | 998.7 |
| 20260504080439 | 57 | 217 | 0.0 | 10.0 | 0.00 | 0.00 | 0.00 | 50 | 998.7 |
| 20260504080135 | 57 | 212 | 0.0 | 10.0 | 0.00 | 0.00 | 0.00 | 50 | 998.7 |
| 20260504070343 | 57 | 237 | 0.0 | 6.0 | 0.00 | 0.00 | 0.00 | 50 | 999.5 |
| 20260504070117 | 57 | 213 | 0.0 | 7.0 | 0.00 | 0.00 | 0.00 | 50 | 999.7 |
| 20260504060204 | 0 | 0.0 | 0.0 | 0.00 | 0.00 | 0.00 | 1001.0 | ||
| 20260504050702 | 49 | 257 | 0.0 | 0.0 | 0.00 | 0.00 | 0.00 | 74 | 1001.7 |
| 20260504050502 | 49 | 257 | 0.0 | 0.0 | 0.00 | 0.00 | 0.00 | 74 | 1001.8 |
| 20260504050403 | 49 | 257 | 0.0 | 0.0 | 0.00 | 0.00 | 0.00 | 74 | 1001.9 |
| 20260504050229 | 49 | 257 | 0.0 | 0.0 | 0.00 | 0.00 | 0.00 | 73 | 1001.8 |
| 20260504045906 | 49 | 257 | 0.0 | 0.0 | 0.00 | 0.00 | 0.00 | 73 | 1001.9 |
| 20260504045831 | 49 | 257 | 0.0 | 0.0 | 0.00 | 0.00 | 0.00 | 73 | 1001.9 |
| 20260504045727 | 49 | 257 | 0.0 | 0.0 | 0.00 | 0.00 | 0.00 | 73 | 1001.9 |
| 20260504045410 | 49 | 257 | 0.0 | 0.0 | 0.00 | 0.00 | 0.00 | 73 | 1002.0 |
| 20260504045405 | 49 | 257 | 0.0 | 0.0 | 0.00 | 0.00 | 0.00 | 73 | 1002.0 |
| 20260504045202 | 49 | 257 | 0.0 | 0.0 | 0.00 | 0.00 | 0.00 | 73 | 1002.0 |
| 20260504045008 | 49 | 257 | 0.0 | 0.0 | 0.00 | 0.00 | 0.00 | 73 | 1002.1 |
| 20260504044853 | 49 | 257 | 0.0 | 0.0 | 0.00 | 0.00 | 0.00 | 73 | 1002.1 |
| 20260504044802 | 49 | 257 | 0.0 | 0.0 | 0.00 | 0.00 | 0.00 | 73 | 1002.1 |
| 20260504044603 | 49 | 257 | 0.0 | 0.0 | 0.00 | 0.00 | 0.00 | 73 | 1002.1 |
| 20260504044350 | 49 | 257 | 0.0 | 0.0 | 0.00 | 0.00 | 0.00 | 73 | 1002.2 |
| 20260504044156 | 49 | 257 | 0.0 | 0.0 | 0.00 | 0.00 | 0.00 | 72 | 1002.2 |
| 20260504043945 | 49 | 257 | 0.0 | 0.0 | 0.00 | 0.00 | 0.00 | 72 | 1002.3 |
| 20260504043847 | 49 | 257 | 0.0 | 0.0 | 0.00 | 0.00 | 0.00 | 72 | 1002.3 |
| 20260504043733 | 50 | 257 | 0.0 | 0.0 | 0.00 | 0.00 | 0.00 | 69 | 1002.3 |
| 20260504043535 | 50 | 257 | 0.0 | 0.0 | 0.00 | 0.00 | 0.00 | 69 | 1002.4 |
| 20260504043335 | 50 | 257 | 0.0 | 0.0 | 0.00 | 0.00 | 0.00 | 69 | 1002.4 |
| 20260504043110 | 50 | 257 | 0.0 | 0.0 | 0.00 | 0.00 | 0.00 | 69 | 1002.4 |
| 20260504042947 | 50 | 257 | 0.0 | 0.0 | 0.00 | 0.00 | 0.00 | 69 | 1002.4 |
| 20260504042837 | 50 | 257 | 0.0 | 0.0 | 0.00 | 0.00 | 0.00 | 69 | 1002.5 |
| 20260504042647 | 50 | 257 | 0.0 | 0.0 | 0.00 | 0.00 | 0.00 | 69 | 1002.5 |
| 20260504042432 | 50 | 257 | 0.0 | 0.0 | 0.00 | 0.00 | 0.00 | 69 | 1002.5 |
| 20260504042330 | 50 | 257 | 0.0 | 0.0 | 0.00 | 0.00 | 0.00 | 69 | 1002.5 |
| 20260504042232 | 50 | 257 | 0.0 | 0.0 | 0.00 | 0.00 | 0.00 | 67 | 1002.6 |
| 20260504042036 | 50 | 257 | 0.0 | 0.0 | 0.00 | 0.00 | 0.00 | 67 | 1002.6 |
| 20260504041806 | 50 | 257 | 0.0 | 0.0 | 0.00 | 0.00 | 0.00 | 67 | 1002.6 |
| 20260504041618 | 50 | 257 | 0.0 | 0.0 | 0.00 | 0.00 | 0.00 | 67 | 1002.6 |
| 20260504041614 | 50 | 257 | 0.0 | 0.0 | 0.00 | 0.00 | 0.00 | 67 | 1002.6 |
| 20260504041544 | 50 | 257 | 0.0 | 0.0 | 0.00 | 0.00 | 0.00 | 67 | 1002.6 |
| 20260504041250 | 50 | 257 | 0.0 | 0.0 | 0.00 | 0.00 | 0.00 | 67 | 1002.6 |
| 20260504041157 | 50 | 257 | 0.0 | 0.0 | 0.00 | 0.00 | 0.00 | 67 | 1002.7 |
| 20260504041112 | 50 | 257 | 0.0 | 0.0 | 0.00 | 0.00 | 0.00 | 67 | 1002.7 |
| 20260504040734 | 51 | 257 | 0.0 | 0.0 | 0.00 | 0.00 | 0.00 | 67 | 1002.7 |
| 20260504040535 | 51 | 257 | 0.0 | 0.0 | 0.00 | 0.00 | 0.00 | 67 | 1002.7 |
| 20260504040334 | 51 | 257 | 0.0 | 0.0 | 0.00 | 0.00 | 0.00 | 67 | 1002.8 |
| 20260504040237 | 51 | 257 | 0.0 | 0.0 | 0.00 | 0.00 | 0.00 | 68 | 1002.9 |
| 20260504040141 | 51 | 257 | 0.0 | 0.0 | 0.00 | 0.00 | 0.00 | 63 | 1002.9 |
| 20260504040108 | 51 | 257 | 0.0 | 0.0 | 0.00 | 0.00 | 0.00 | 68 | 1002.9 |
| 20260504035732 | 51 | 257 | 0.0 | 0.0 | 0.00 | 0.00 | 0.00 | 63 | 1002.9 |
| 20260504035532 | 51 | 257 | 0.0 | 0.0 | 0.00 | 0.00 | 0.00 | 63 | 1003.0 |
| 20260504035317 | 51 | 257 | 0.0 | 0.0 | 0.00 | 0.00 | 0.00 | 63 | 1003.0 |
| 20260504035131 | 51 | 257 | 0.0 | 0.0 | 0.00 | 0.00 | 0.00 | 63 | 1003.0 |
| 20260504035111 | 52 | 257 | 0.0 | 0.0 | 0.00 | 0.00 | 0.00 | 63 | 1003.1 |
| 20260504035049 | 51 | 257 | 0.0 | 0.0 | 0.00 | 0.00 | 0.00 | 63 | 1003.1 |
| 20260504034735 | 52 | 257 | 0.0 | 0.0 | 0.00 | 0.00 | 0.00 | 63 | 1003.1 |
| 20260504034622 | 52 | 257 | 0.0 | 0.0 | 0.00 | 0.00 | 0.00 | 63 | 1003.1 |
| 20260504034303 | 52 | 257 | 0.0 | 0.0 | 0.00 | 0.00 | 0.00 | 63 | 1003.2 |
| 20260504034117 | 52 | 257 | 0.0 | 0.0 | 0.00 | 0.00 | 0.00 | 63 | 1003.3 |
| 20260504034105 | 52 | 257 | 0.0 | 0.0 | 0.00 | 0.00 | 0.00 | 63 | 1003.3 |
| 20260504034038 | 52 | 257 | 0.0 | 0.0 | 0.00 | 0.00 | 0.00 | 63 | 1003.2 |
| 20260504033718 | 52 | 257 | 0.0 | 0.0 | 0.00 | 0.00 | 0.00 | 63 | 1003.3 |
| 20260504033509 | 52 | 257 | 0.0 | 0.0 | 0.00 | 0.00 | 0.00 | 58 | 1003.3 |
| 20260504033308 | 52 | 257 | 0.0 | 0.0 | 0.00 | 0.00 | 0.00 | 58 | 1003.4 |
| 20260504033107 | 52 | 257 | 0.0 | 0.0 | 0.00 | 0.00 | 0.00 | 58 | 1003.4 |
| 20260504033010 | 52 | 257 | 0.0 | 0.0 | 0.00 | 0.00 | 0.00 | 58 | 1003.4 |
| 20260504032708 | 52 | 257 | 0.0 | 0.0 | 0.00 | 0.00 | 0.00 | 58 | 1003.5 |
| 20260504032519 | 53 | 257 | 0.0 | 0.0 | 0.00 | 0.00 | 0.00 | 58 | 1003.4 |
| 20260504032513 | 53 | 257 | 0.0 | 0.0 | 0.00 | 0.00 | 0.00 | 58 | 1003.5 |
| 20260504032443 | 53 | 257 | 0.0 | 0.0 | 0.00 | 0.00 | 0.00 | 58 | 1003.4 |
| 20260504032032 | 53 | 257 | 0.0 | 0.0 | 0.00 | 0.00 | 0.00 | 58 | 1003.5 |
| 20260504031832 | 53 | 257 | 0.0 | 0.0 | 0.00 | 0.00 | 0.00 | 58 | 1003.5 |
| 20260504031725 | 53 | 257 | 0.0 | 1.0 | 0.00 | 0.00 | 0.00 | 58 | 1003.4 |
| 20260504031631 | 53 | 257 | 0.0 | 2.0 | 0.00 | 0.00 | 0.00 | 58 | 1003.5 |
| 20260504031454 | 53 | 257 | 0.0 | 2.0 | 0.00 | 0.00 | 0.00 | 58 | 1003.6 |
| 20260504031439 | 53 | 257 | 0.0 | 2.0 | 0.00 | 0.00 | 0.00 | 58 | 1003.5 |
| 20260504031005 | 53 | 257 | 0.0 | 2.0 | 0.00 | 0.00 | 0.00 | 58 | 1003.5 |
| 20260504030807 | 53 | 257 | 0.0 | 2.0 | 0.00 | 0.00 | 0.00 | 58 | 1003.6 |
| 20260504030635 | 53 | 257 | 0.0 | 1.0 | 0.00 | 0.00 | 0.00 | 58 | 1003.6 |
| 20260504030604 | 53 | 257 | 0.0 | 1.0 | 0.00 | 0.00 | 0.00 | 58 | 1003.6 |
| 20260504030434 | 54 | 257 | 0.0 | 0.0 | 0.00 | 0.00 | 0.00 | 57 | 1003.6 |
| 20260504030422 | 54 | 257 | 0.0 | 0.0 | 0.00 | 0.00 | 0.00 | 57 | 1003.6 |
| 20260504030353 | 54 | 257 | 0.0 | 0.0 | 0.00 | 0.00 | 0.00 | 57 | 1003.6 |
| 20260504025957 | 54 | 257 | 0.0 | 0.0 | 0.00 | 0.00 | 0.00 | 56 | 1003.7 |
| 20260504025755 | 54 | 257 | 0.0 | 0.0 | 0.00 | 0.00 | 0.00 | 56 | 1003.7 |
| 20260504025644 | 54 | 257 | 0.0 | 0.0 | 0.00 | 0.00 | 0.00 | 56 | 1003.8 |
| 20260504025633 | 54 | 257 | 0.0 | 0.0 | 0.00 | 0.00 | 0.00 | 56 | 1003.8 |
| 20260504025341 | 54 | 257 | 0.0 | 0.0 | 0.00 | 0.00 | 0.00 | 56 | 1003.7 |
| 20260504025138 | 54 | 257 | 0.0 | 0.0 | 0.00 | 0.00 | 0.00 | 56 | 1003.8 |
| 20260504024937 | 54 | 257 | 0.0 | 0.0 | 0.00 | 0.00 | 0.00 | 55 | 1003.8 |
| 20260504024739 | 55 | 257 | 0.0 | 0.0 | 0.00 | 0.00 | 0.00 | 55 | 1003.7 |
| 20260504024636 | 55 | 257 | 0.0 | 0.0 | 0.00 | 0.00 | 0.00 | 56 | 1003.7 |
| 20260504024538 | 55 | 257 | 0.0 | 0.0 | 0.00 | 0.00 | 0.00 | 57 | 1003.7 |
| 20260504024419 | 56 | 257 | 0.0 | 0.0 | 0.00 | 0.00 | 0.00 | 52 | 1003.7 |
| 20260504024413 | 56 | 257 | 0.0 | 0.0 | 0.00 | 0.00 | 0.00 | 52 | 1003.8 |
| 20260504024346 | 56 | 257 | 0.0 | 0.0 | 0.00 | 0.00 | 0.00 | 52 | 1003.7 |
| 20260504023934 | 56 | 257 | 0.0 | 0.0 | 0.00 | 0.00 | 0.00 | 52 | 1003.7 |
| 20260504023728 | 56 | 257 | 0.0 | 0.0 | 0.00 | 0.00 | 0.00 | 52 | 1003.8 |
| 20260504023620 | 56 | 257 | 0.0 | 0.0 | 0.00 | 0.00 | 0.00 | 52 | 1003.8 |
| 20260504023508 | 56 | 257 | 0.0 | 0.0 | 0.00 | 0.00 | 0.00 | 52 | 1003.8 |
| 20260504023349 | 56 | 257 | 0.0 | 0.0 | 0.00 | 0.00 | 0.00 | 52 | 1003.8 |
| 20260504023338 | 56 | 257 | 0.0 | 0.0 | 0.00 | 0.00 | 0.00 | 52 | 1003.8 |
| 20260504023035 | 56 | 257 | 0.0 | 0.0 | 0.00 | 0.00 | 0.00 | 52 | 1003.8 |
| 20260504022836 | 56 | 257 | 0.0 | 0.0 | 0.00 | 0.00 | 0.00 | 52 | 1003.8 |
| 20260504022639 | 56 | 257 | 0.0 | 0.0 | 0.00 | 0.00 | 0.00 | 52 | 1003.8 |
| 20260504022605 | 56 | 257 | 0.0 | 0.0 | 0.00 | 0.00 | 0.00 | 52 | 1003.8 |
| 20260504022511 | 56 | 257 | 0.0 | 0.0 | 0.00 | 0.00 | 0.00 | 51 | 1003.8 |
| 20260504022359 | 57 | 257 | 0.0 | 0.0 | 0.00 | 0.00 | 0.00 | 51 | 1003.8 |
| 20260504022331 | 56 | 257 | 0.0 | 0.0 | 0.00 | 0.00 | 0.00 | 51 | 1003.8 |
| 20260504022003 | 57 | 257 | 0.0 | 0.0 | 0.00 | 0.00 | 0.00 | 51 | 1003.8 |
| 20260504021805 | 57 | 257 | 0.0 | 0.0 | 0.00 | 0.00 | 0.00 | 50 | 1003.8 |
| 20260504021612 | 57 | 257 | 0.0 | 0.0 | 0.00 | 0.00 | 0.00 | 50 | 1003.8 |
| 20260504021559 | 57 | 257 | 0.0 | 0.0 | 0.00 | 0.00 | 0.00 | 50 | 1003.8 |
| 20260504021349 | 57 | 257 | 0.0 | 0.0 | 0.00 | 0.00 | 0.00 | 49 | 1003.8 |
| 20260504021150 | 57 | 257 | 0.0 | 0.0 | 0.00 | 0.00 | 0.00 | 49 | 1003.8 |
| 20260504021118 | 57 | 257 | 0.0 | 0.0 | 0.00 | 0.00 | 0.00 | 49 | 1003.8 |
| 20260504020942 | 57 | 257 | 0.0 | 0.0 | 0.00 | 0.00 | 0.00 | 50 | 1003.8 |
| 20260504020836 | 59 | 257 | 0.0 | 0.0 | 0.00 | 0.00 | 0.00 | 47 | 1003.8 |
| 20260504020624 | 59 | 257 | 0.0 | 0.0 | 0.00 | 0.00 | 0.00 | 47 | 1003.8 |
| 20260504020532 | 59 | 257 | 0.0 | 0.0 | 0.00 | 0.00 | 0.00 | 47 | 1003.8 |
| 20260504020332 | 59 | 257 | 0.0 | 0.0 | 0.00 | 0.00 | 0.00 | 47 | 1003.8 |
| 20260504015932 | 59 | 257 | 0.0 | 0.0 | 0.00 | 0.00 | 0.00 | 47 | 1003.8 |
| 20260504015702 | 59 | 257 | 0.0 | 0.0 | 0.00 | 0.00 | 0.00 | 50 | 1003.8 |
| 20260504015608 | 59 | 257 | 0.0 | 0.0 | 0.00 | 0.00 | 0.00 | 50 | 1003.9 |
| 20260504015603 | 59 | 257 | 0.0 | 0.0 | 0.00 | 0.00 | 0.00 | 50 | 1003.8 |
| 20260504015304 | 59 | 257 | 0.0 | 0.0 | 0.00 | 0.00 | 0.00 | 45 | 1003.8 |
| 20260504015104 | 60 | 257 | 0.0 | 1.0 | 0.00 | 0.00 | 0.00 | 45 | 1003.8 |
| 20260504014854 | 60 | 257 | 0.0 | 2.0 | 0.00 | 0.00 | 0.00 | 45 | 1003.8 |
| 20260504014658 | 60 | 257 | 0.0 | 2.0 | 0.00 | 0.00 | 0.00 | 43 | 1003.8 |
| 20260504014556 | 61 | 257 | 0.0 | 2.0 | 0.00 | 0.00 | 0.00 | 43 | 1003.9 |
| 20260504014456 | 61 | 257 | 0.0 | 2.0 | 0.00 | 0.00 | 0.00 | 43 | 1003.8 |
| 20260504014258 | 61 | 257 | 0.0 | 2.0 | 0.00 | 0.00 | 0.00 | 43 | 1004.0 |
| 20260504014039 | 0 | 257 | 0.0 | 2.0 | 0.00 | 0.00 | 0.00 | 1004.0 | |
| 20260504013957 | 62 | 257 | 0.0 | 0.0 | 0.00 | 0.00 | 0.00 | 48 | 1004.0 |
| 20260504013640 | 62 | 257 | 0.0 | 0.0 | 0.00 | 0.00 | 0.00 | 48 | 1004.0 |
| 20260504013534 | 62 | 257 | 0.0 | 0.0 | 0.00 | 0.00 | 0.00 | 48 | 1004.0 |
| 20260504013436 | 62 | 257 | 0.0 | 0.0 | 0.00 | 0.00 | 0.00 | 48 | 1004.0 |
| 20260504013236 | 62 | 257 | 0.0 | 0.0 | 0.00 | 0.00 | 0.00 | 48 | 1004.2 |
| 20260504013028 | 62 | 257 | 0.0 | 1.0 | 0.00 | 0.00 | 0.00 | 48 | 1004.2 |
| 20260504012836 | 63 | 257 | 0.0 | 1.0 | 0.00 | 0.00 | 0.00 | 48 | 1004.2 |
| 20260504012637 | 63 | 257 | 0.0 | 1.0 | 0.00 | 0.00 | 0.00 | 48 | 1004.2 |
| 20260504012529 | 63 | 257 | 0.0 | 1.0 | 0.00 | 0.00 | 0.00 | 48 | 1004.3 |
| 20260504012439 | 64 | 257 | 0.0 | 1.0 | 0.00 | 0.00 | 0.00 | 41 | 1004.3 |
| 20260504012335 | 64 | 257 | 0.0 | 1.0 | 0.00 | 0.00 | 0.00 | 41 | 1004.3 |
| 20260504012037 | 64 | 257 | 0.0 | 1.0 | 0.00 | 0.00 | 0.00 | 41 | 1004.3 |
| 20260504012032 | 64 | 257 | 0.0 | 1.0 | 0.00 | 0.00 | 0.00 | 41 | 1004.2 |
| 20260504011836 | 65 | 257 | 0.0 | 0.0 | 0.00 | 0.00 | 0.00 | 49 | 1004.3 |
| 20260504011633 | 65 | 257 | 0.0 | 0.0 | 0.00 | 0.00 | 0.00 | 42 | 1004.2 |
| 20260504011527 | 65 | 257 | 0.0 | 0.0 | 0.00 | 0.00 | 0.00 | 42 | 1004.2 |
| 20260504011434 | 66 | 257 | 0.0 | 1.0 | 0.00 | 0.00 | 0.00 | 42 | 1004.2 |
| 20260504011235 | 66 | 257 | 0.0 | 1.0 | 0.00 | 0.00 | 0.00 | 42 | 1004.2 |
| 20260504011029 | 66 | 257 | 0.0 | 1.0 | 0.00 | 0.00 | 0.00 | 42 | 1004.2 |
| 20260504010934 | 66 | 257 | 0.0 | 1.0 | 0.00 | 0.00 | 0.00 | 42 | 1004.2 |
| 20260504010627 | 66 | 257 | 0.0 | 1.0 | 0.00 | 0.00 | 0.00 | 42 | 1004.0 |
| 20260504010519 | 66 | 257 | 0.0 | 1.0 | 0.00 | 0.00 | 0.00 | 36 | 1004.2 |
| 20260504010425 | 66 | 257 | 0.0 | 1.0 | 0.00 | 0.00 | 0.00 | 36 | 1004.2 |
| 20260504010228 | 66 | 257 | 0.0 | 1.0 | 0.00 | 0.00 | 0.00 | 41 | 1004.2 |
| 20260504010028 | 67 | 257 | 0.0 | 2.0 | 0.00 | 0.00 | 0.00 | 33 | 1004.3 |
| 20260504010011 | 67 | 257 | 0.0 | 2.0 | 0.00 | 0.00 | 0.00 | 33 | 1004.2 |
| 20260504005827 | 67 | 257 | 0.0 | 2.0 | 0.00 | 0.00 | 0.00 | 33 | 1004.3 |
| 20260504005604 | 67 | 257 | 0.0 | 3.0 | 0.00 | 0.00 | 0.00 | 33 | 1004.2 |
| 20260504005512 | 67 | 257 | 0.0 | 3.0 | 0.00 | 0.00 | 0.00 | 33 | 1004.2 |
| 20260504005407 | 67 | 257 | 0.0 | 3.0 | 0.00 | 0.00 | 0.00 | 33 | 1004.2 |
| 20260504005231 | 67 | 257 | 0.0 | 3.0 | 0.00 | 0.00 | 0.00 | 33 | 1004.3 |
| 20260504005011 | 67 | 257 | 0.0 | 3.0 | 0.00 | 0.00 | 0.00 | 33 | 1004.3 |
| 20260504004930 | 67 | 257 | 0.0 | 3.0 | 0.00 | 0.00 | 0.00 | 33 | 1004.3 |
| 20260504004756 | 67 | 257 | 0.0 | 3.0 | 0.00 | 0.00 | 0.00 | 31 | 1004.2 |
| 20260504004750 | 67 | 257 | 0.0 | 3.0 | 0.00 | 0.00 | 0.00 | 32 | 1004.3 |
| 20260504004723 | 67 | 257 | 0.0 | 3.0 | 0.00 | 0.00 | 0.00 | 31 | 1004.2 |
| 20260504004315 | 67 | 257 | 0.0 | 3.0 | 0.00 | 0.00 | 0.00 | 33 | 1004.3 |
| 20260504004113 | 68 | 257 | 0.0 | 3.0 | 0.00 | 0.00 | 0.00 | 32 | 1004.2 |
| 20260504004014 | 68 | 255 | 0.0 | 3.0 | 0.00 | 0.00 | 0.00 | 32 | 1004.4 |
| 20260504004003 | 68 | 255 | 0.0 | 3.0 | 0.00 | 0.00 | 0.00 | 32 | 1004.4 |
| 20260504003757 | 68 | 255 | 0.0 | 5.0 | 0.00 | 0.00 | 0.00 | 32 | 1004.3 |
| 20260504003749 | 68 | 255 | 0.0 | 3.0 | 0.00 | 0.00 | 0.00 | 32 | 1004.3 |
| 20260504003722 | 68 | 255 | 0.0 | 5.0 | 0.00 | 0.00 | 0.00 | 32 | 1004.3 |
| 20260504003318 | 68 | 255 | 0.0 | 6.0 | 0.00 | 0.00 | 0.00 | 32 | 1004.3 |
| 20260504003112 | 68 | 255 | 0.0 | 6.0 | 0.00 | 0.00 | 0.00 | 32 | 1004.3 |
| 20260504002937 | 68 | 255 | 0.0 | 6.0 | 0.00 | 0.00 | 0.00 | 31 | 1004.4 |
| 20260504002907 | 68 | 255 | 0.0 | 6.0 | 0.00 | 0.00 | 0.00 | 31 | 1004.3 |
| 20260504002733 | 69 | 250 | 0.0 | 6.0 | 0.00 | 0.00 | 0.00 | 31 | 1004.4 |
| 20260504002723 | 68 | 255 | 0.0 | 6.0 | 0.00 | 0.00 | 0.00 | 31 | 1004.4 |
| 20260504002651 | 69 | 252 | 0.0 | 6.0 | 0.00 | 0.00 | 0.00 | 30 | 1004.4 |
| 20260504002409 | 0 | 248 | 0.0 | 2.0 | 0.00 | 0.00 | 0.00 | 1004.3 | |
| 20260504002107 | 68 | 248 | 0.0 | 5.0 | 0.00 | 0.00 | 0.00 | 31 | 1004.5 |
| 20260504001934 | 68 | 248 | 0.0 | 5.0 | 0.00 | 0.00 | 0.00 | 31 | 1004.5 |
| 20260504001856 | 68 | 248 | 0.0 | 5.0 | 0.00 | 0.00 | 0.00 | 31 | 1004.5 |
| 20260504001657 | 68 | 248 | 0.0 | 6.0 | 0.00 | 0.00 | 0.00 | 31 | 1004.5 |
| 20260504001433 | 68 | 248 | 0.0 | 15.0 | 0.00 | 0.00 | 0.00 | 31 | 1004.5 |
| 20260504001232 | 68 | 261 | 0.0 | 15.0 | 0.00 | 0.00 | 0.00 | 31 | 1004.5 |
| 20260504001033 | 68 | 265 | 0.0 | 15.0 | 0.00 | 0.00 | 0.00 | 32 | 1004.5 |
| 20260504000932 | 69 | 241 | 0.0 | 15.0 | 0.00 | 0.00 | 0.00 | 31 | 1004.5 |
| 20260504000832 | 69 | 241 | 0.0 | 15.0 | 0.00 | 0.00 | 0.00 | 31 | 1004.5 |
| 20260504000811 | 69 | 221 | 0.0 | 15.0 | 0.00 | 0.00 | 0.00 | 33 | 1004.5 |
| 20260504000723 | 69 | 250 | 0.0 | 6.0 | 0.00 | 0.00 | 0.00 | 30 | 1004.4 |
| 20260504000638 | 69 | 250 | 0.0 | 6.0 | 0.00 | 0.00 | 0.00 | 30 | 1004.4 |
| 20260504000236 | 69 | 221 | 0.0 | 6.0 | 0.00 | 0.00 | 0.00 | 31 | 1004.4 |
| 20260504000016 | 69 | 238 | 0.0 | 6.0 | 0.00 | 0.00 | 0.00 | 31 | 1004.5 |
| 20260503235918 | 69 | 251 | 0.0 | 6.0 | 0.00 | 0.00 | 0.00 | 32 | 1004.4 |
| 20260503235815 | 69 | 257 | 0.0 | 6.0 | 0.00 | 0.00 | 0.00 | 30 | 1004.5 |
| 20260503235718 | 70 | 262 | 0.0 | 11.0 | 0.00 | 0.00 | 0.00 | 30 | 1004.4 |
| 20260503235659 | 70 | 255 | 0.0 | 11.0 | 0.00 | 0.00 | 0.00 | 32 | 1004.4 |
| 20260503235624 | 70 | 262 | 0.0 | 11.0 | 0.00 | 0.00 | 0.00 | 30 | 1004.4 |
| 20260503235214 | 70 | 262 | 0.0 | 11.0 | 0.00 | 0.00 | 0.00 | 31 | 1004.3 |
| 20260503235004 | 70 | 251 | 0.0 | 11.0 | 0.00 | 0.00 | 0.00 | 31 | 1004.4 |
| 20260503234910 | 70 | 228 | 0.0 | 11.0 | 0.00 | 0.00 | 0.00 | 29 | 1004.4 |
| 20260503234804 | 70 | 227 | 0.0 | 11.0 | 0.00 | 0.00 | 0.00 | 29 | 1004.4 |
| 20260503234744 | 70 | 243 | 0.0 | 11.0 | 0.00 | 0.00 | 0.00 | 29 | 1004.4 |
| 20260503234700 | 70 | 250 | 0.0 | 11.0 | 0.00 | 0.00 | 0.00 | 29 | 1004.5 |
| 20260503234618 | 70 | 250 | 0.0 | 11.0 | 0.00 | 0.00 | 0.00 | 29 | 1004.5 |
| 20260503234206 | 71 | 226 | 0.0 | 11.0 | 0.00 | 0.00 | 0.00 | 29 | 1004.4 |
| 20260503233956 | 71 | 219 | 0.0 | 11.0 | 0.00 | 0.00 | 0.00 | 29 | 1004.5 |
| 20260503233859 | 71 | 223 | 0.0 | 11.0 | 0.00 | 0.00 | 0.00 | 29 | 1004.5 |
| 20260503233801 | 71 | 272 | 0.0 | 10.0 | 0.00 | 0.00 | 0.00 | 29 | 1004.5 |
| 20260503233602 | 72 | 231 | 0.0 | 0.0 | 0.00 | 0.00 | 0.00 | 30 | 1004.5 |
| 20260503233400 | 72 | 241 | 0.0 | 0.0 | 0.00 | 0.00 | 0.00 | 32 | 1004.6 |
| 20260503233200 | 72 | 230 | 0.0 | 3.0 | 0.00 | 0.00 | 0.00 | 32 | 1004.5 |
| 20260503233059 | 72 | 230 | 0.0 | 3.0 | 0.00 | 0.00 | 0.00 | 32 | 1004.5 |
| 20260503232843 | 72 | 230 | 0.0 | 3.0 | 0.00 | 0.00 | 0.00 | 32 | 1004.6 |
| 20260503232746 | 72 | 230 | 0.0 | 3.0 | 0.00 | 0.00 | 0.00 | 32 | 1004.6 |
| 20260503232622 | 72 | 230 | 0.0 | 3.0 | 0.00 | 0.00 | 0.00 | 32 | 1004.7 |
| 20260503232615 | 72 | 230 | 0.0 | 3.0 | 0.00 | 0.00 | 0.00 | 32 | 1004.6 |
| 20260503232549 | 72 | 230 | 0.0 | 3.0 | 0.00 | 0.00 | 0.00 | 32 | 1004.7 |
| 20260503232145 | 72 | 63 | 0.0 | 2.0 | 0.00 | 0.00 | 0.00 | 33 | 1004.7 |
| 20260503231945 | 72 | 63 | 0.0 | 3.0 | 0.00 | 0.00 | 0.00 | 33 | 1004.7 |
| 20260503231832 | 72 | 63 | 0.0 | 3.0 | 0.00 | 0.00 | 0.00 | 33 | 1004.7 |
| 20260503231734 | 72 | 63 | 0.0 | 3.0 | 0.00 | 0.00 | 0.00 | 33 | 1004.8 |
| 20260503231633 | 72 | 61 | 0.0 | 3.0 | 0.00 | 0.00 | 0.00 | 30 | 1004.8 |
| 20260503231610 | 72 | 61 | 0.0 | 3.0 | 0.00 | 0.00 | 0.00 | 30 | 1004.8 |
| 20260503231547 | 72 | 61 | 0.0 | 3.0 | 0.00 | 0.00 | 0.00 | 30 | 1004.8 |
| 20260503231133 | 72 | 42 | 0.0 | 3.0 | 0.00 | 0.00 | 0.00 | 32 | 1004.9 |
| 20260503231041 | 72 | 210 | 0.0 | 0.0 | 0.00 | 0.00 | 0.00 | 29 | 1004.8 |
| 20260503230802 | 72 | 206 | 0.0 | 0.0 | 0.00 | 0.00 | 0.00 | 29 | 1004.8 |
| 20260503230734 | 72 | 206 | 0.0 | 0.0 | 0.00 | 0.00 | 0.00 | 29 | 1004.9 |
| 20260503230554 | 72 | 206 | 0.0 | 4.0 | 0.00 | 0.00 | 0.00 | 29 | 1005.0 |
| 20260503230542 | 72 | 206 | 0.0 | 3.0 | 0.00 | 0.00 | 0.00 | 29 | 1004.9 |
| 20260503230519 | 72 | 206 | 0.0 | 4.0 | 0.00 | 0.00 | 0.00 | 29 | 1005.0 |
| 20260503230107 | 72 | 206 | 0.0 | 4.0 | 0.00 | 0.00 | 0.00 | 29 | 1004.9 |
| 20260503225907 | 72 | 245 | 0.0 | 4.0 | 0.00 | 0.00 | 0.00 | 29 | 1004.9 |
| 20260503225802 | 72 | 245 | 0.0 | 4.0 | 0.00 | 0.00 | 0.00 | 29 | 1004.8 |
| 20260503225634 | 72 | 245 | 0.0 | 4.0 | 0.00 | 0.00 | 0.00 | 29 | 1004.9 |
| 20260503225604 | 72 | 192 | 0.0 | 0.0 | 0.00 | 0.00 | 0.00 | 34 | 1005.0 |
| 20260503225559 | 72 | 192 | 0.0 | 0.0 | 0.00 | 0.00 | 0.00 | 34 | 1005.0 |
| 20260503225531 | 72 | 244 | 0.0 | 3.0 | 0.00 | 0.00 | 0.00 | 30 | 1004.8 |
| 20260503225017 | 72 | 192 | 0.0 | 0.0 | 0.00 | 0.00 | 0.00 | 34 | 1004.9 |
| 20260503224812 | 72 | 192 | 0.0 | 0.0 | 0.00 | 0.00 | 0.00 | 34 | 1004.9 |
| 20260503224731 | 72 | 192 | 0.0 | 0.0 | 0.00 | 0.00 | 0.00 | 34 | 1004.9 |
| 20260503224612 | 72 | 192 | 0.0 | 0.0 | 0.00 | 0.00 | 0.00 | 34 | 1004.9 |
| 20260503224410 | 72 | 93 | 0.0 | 3.0 | 0.00 | 0.00 | 0.00 | 32 | 1005.0 |
| 20260503224204 | 72 | 157 | 0.0 | 7.0 | 0.00 | 0.00 | 0.00 | 29 | 1005.1 |
| 20260503224008 | 71 | 224 | 0.0 | 7.0 | 0.00 | 0.00 | 0.00 | 32 | 1004.9 |
| 20260503224001 | 71 | 197 | 0.0 | 7.0 | 0.00 | 0.00 | 0.00 | 29 | 1005.0 |
| 20260503223934 | 71 | 224 | 0.0 | 7.0 | 0.00 | 0.00 | 0.00 | 28 | 1005.0 |
| 20260503223602 | 71 | 251 | 0.0 | 7.0 | 0.00 | 0.00 | 0.00 | 29 | 1005.0 |
| 20260503223403 | 71 | 240 | 0.0 | 7.0 | 0.00 | 0.00 | 0.00 | 29 | 1005.1 |
| 20260503223212 | 71 | 213 | 0.0 | 6.0 | 0.00 | 0.00 | 0.00 | 29 | 1005.0 |
| 20260503223204 | 71 | 175 | 0.0 | 6.0 | 0.00 | 0.00 | 0.00 | 29 | 1005.1 |
| 20260503223007 | 71 | 175 | 0.0 | 10.0 | 0.00 | 0.00 | 0.00 | 29 | 1005.1 |
| 20260503222928 | 71 | 290 | 0.0 | 10.0 | 0.00 | 0.00 | 0.00 | 28 | 1005.1 |
| 20260503222609 | 71 | 290 | 0.0 | 10.0 | 0.00 | 0.00 | 0.00 | 28 | 1005.1 |
| 20260503222313 | 71 | 210 | 0.0 | 10.0 | 0.00 | 0.00 | 0.00 | 31 | 1005.1 |
| 20260503222211 | 71 | 209 | 0.0 | 10.0 | 0.00 | 0.00 | 0.00 | 31 | 1005.1 |
| 20260503222111 | 71 | 278 | 0.0 | 9.0 | 0.00 | 0.00 | 0.00 | 31 | 1005.2 |
| 20260503221953 | 72 | 278 | 0.0 | 11.0 | 0.00 | 0.00 | 0.00 | 31 | 1005.0 |
| 20260503221940 | 72 | 278 | 0.0 | 11.0 | 0.00 | 0.00 | 0.00 | 31 | 1005.1 |
| 20260503221922 | 72 | 278 | 0.0 | 11.0 | 0.00 | 0.00 | 0.00 | 31 | 1005.0 |
| 20260503221511 | 72 | 206 | 0.0 | 11.0 | 0.00 | 0.00 | 0.00 | 32 | 1005.0 |
| 20260503221312 | 72 | 216 | 0.0 | 11.0 | 0.00 | 0.00 | 0.00 | 30 | 1005.1 |
| 20260503221209 | 72 | 224 | 0.0 | 11.0 | 0.00 | 0.00 | 0.00 | 29 | 1005.1 |
| 20260503221111 | 72 | 278 | 0.0 | 11.0 | 0.00 | 0.00 | 0.00 | 29 | 1005.1 |
| 20260503221013 | 72 | 250 | 0.0 | 7.0 | 0.00 | 0.00 | 0.00 | 32 | 1005.1 |
| 20260503220704 | 72 | 240 | 0.0 | 7.0 | 0.00 | 0.00 | 0.00 | 32 | 1005.0 |
| 20260503220511 | 71 | 251 | 0.0 | 7.0 | 0.00 | 0.00 | 0.00 | 32 | 1005.0 |
| 20260503220311 | 71 | 144 | 0.0 | 7.0 | 0.00 | 0.00 | 0.00 | 32 | 1005.0 |
| 20260503220206 | 71 | 59 | 0.0 | 10.0 | 0.00 | 0.00 | 0.00 | 31 | 1005.0 |
| 20260503220111 | 71 | 214 | 0.0 | 10.0 | 0.00 | 0.00 | 0.00 | 31 | 1005.0 |
| 20260503220005 | 71 | 228 | 0.0 | 13.0 | 0.00 | 0.00 | 0.00 | 29 | 1005.2 |
| 20260503215941 | 71 | 235 | 0.0 | 13.0 | 0.00 | 0.00 | 0.00 | 31 | 1005.2 |
| 20260503215918 | 71 | 228 | 0.0 | 13.0 | 0.00 | 0.00 | 0.00 | 29 | 1005.2 |
| 20260503215507 | 71 | 251 | 0.0 | 13.0 | 0.00 | 0.00 | 0.00 | 29 | 1005.1 |
| 20260503215305 | 71 | 247 | 0.0 | 13.0 | 0.00 | 0.00 | 0.00 | 29 | 1005.2 |
| 20260503215210 | 72 | 252 | 0.0 | 13.0 | 0.00 | 0.00 | 0.00 | 31 | 1005.1 |
| 20260503215205 | 71 | 245 | 0.0 | 13.0 | 0.00 | 0.00 | 0.00 | 30 | 1005.2 |
| 20260503215008 | 71 | 248 | 0.0 | 6.0 | 0.00 | 0.00 | 0.00 | 36 | 1005.1 |
| 20260503214945 | 72 | 257 | 0.0 | 9.0 | 0.00 | 0.00 | 0.00 | 32 | 1005.0 |
| 20260503214918 | 71 | 248 | 0.0 | 6.0 | 0.00 | 0.00 | 0.00 | 36 | 1005.1 |
| 20260503214508 | 71 | 259 | 0.0 | 9.0 | 0.00 | 0.00 | 0.00 | 32 | 1005.1 |
| 20260503214307 | 72 | 272 | 0.0 | 9.0 | 0.00 | 0.00 | 0.00 | 33 | 1005.2 |
| 20260503214207 | 72 | 272 | 0.0 | 9.0 | 0.00 | 0.00 | 0.00 | 33 | 1005.1 |
| 20260503214059 | 72 | 272 | 0.0 | 9.0 | 0.00 | 0.00 | 0.00 | 33 | 1005.1 |
| 20260503213921 | 72 | 272 | 0.0 | 9.0 | 0.00 | 0.00 | 0.00 | 33 | 1005.1 |
| 20260503213909 | 72 | 272 | 0.0 | 9.0 | 0.00 | 0.00 | 0.00 | 33 | 1005.2 |
| 20260503213846 | 72 | 272 | 0.0 | 9.0 | 0.00 | 0.00 | 0.00 | 33 | 1005.2 |
| 20260503213557 | 72 | 165 | 0.0 | 9.0 | 0.00 | 0.00 | 0.00 | 31 | 1005.2 |
| 20260503213258 | 72 | 238 | 0.0 | 5.0 | 0.00 | 0.00 | 0.00 | 33 | 1005.3 |
| 20260503213131 | 72 | 202 | 0.0 | 6.0 | 0.00 | 0.00 | 0.00 | 34 | 1005.2 |
| 20260503213059 | 71 | 233 | 0.0 | 9.0 | 0.00 | 0.00 | 0.00 | 36 | 1005.2 |
| 20260503212900 | 71 | 233 | 0.0 | 9.0 | 0.00 | 0.00 | 0.00 | 36 | 1005.3 |
| 20260503212632 | 71 | 233 | 0.0 | 10.0 | 0.00 | 0.00 | 0.00 | 36 | 1005.2 |
| 20260503212441 | 71 | 209 | 0.0 | 11.0 | 0.00 | 0.00 | 0.00 | 36 | 1005.3 |
| 20260503212240 | 71 | 240 | 0.0 | 11.0 | 0.00 | 0.00 | 0.00 | 35 | 1005.3 |
| 20260503212128 | 71 | 274 | 0.0 | 11.0 | 0.00 | 0.00 | 0.00 | 35 | 1005.2 |
| 20260503212033 | 71 | 188 | 0.0 | 11.0 | 0.00 | 0.00 | 0.00 | 32 | 1005.4 |
| 20260503212016 | 71 | 252 | 0.0 | 11.0 | 0.00 | 0.00 | 0.00 | 33 | 1005.3 |
| 20260503211931 | 71 | 251 | 0.0 | 11.0 | 0.00 | 0.00 | 0.00 | 32 | 1005.2 |
| 20260503211842 | 71 | 261 | 0.0 | 11.0 | 0.00 | 0.00 | 0.00 | 32 | 1005.2 |
| 20260503211434 | 72 | 254 | 0.0 | 9.0 | 0.00 | 0.00 | 0.00 | 32 | 1005.3 |
| 20260503211230 | 72 | 250 | 0.0 | 9.0 | 0.00 | 0.00 | 0.00 | 34 | 1005.2 |
| 20260503211129 | 72 | 255 | 0.0 | 9.0 | 0.00 | 0.00 | 0.00 | 32 | 1005.2 |
| 20260503211032 | 72 | 209 | 0.0 | 9.0 | 0.00 | 0.00 | 0.00 | 32 | 1005.2 |
| 20260503210909 | 73 | 76 | 0.0 | 4.0 | 0.00 | 0.00 | 0.00 | 34 | 1005.3 |
| 20260503210858 | 73 | 76 | 0.0 | 4.0 | 0.00 | 0.00 | 0.00 | 34 | 1005.3 |
| 20260503210608 | 73 | 6 | 0.0 | 5.0 | 0.00 | 0.00 | 0.00 | 34 | 1005.3 |
| 20260503210402 | 71 | 114 | 0.0 | 5.0 | 0.00 | 0.00 | 0.00 | 32 | 1005.4 |
| 20260503210205 | 71 | 114 | 0.0 | 7.0 | 0.00 | 0.00 | 0.00 | 32 | 1005.4 |
| 20260503210130 | 71 | 114 | 0.0 | 7.0 | 0.00 | 0.00 | 0.00 | 32 | 1005.4 |
| 20260503210108 | 71 | 114 | 0.0 | 7.0 | 0.00 | 0.00 | 0.00 | 32 | 1005.4 |
| 20260503205858 | 71 | 234 | 0.0 | 7.0 | 0.00 | 0.00 | 0.00 | 32 | 1005.5 |
| 20260503205842 | 71 | 114 | 0.0 | 7.0 | 0.00 | 0.00 | 0.00 | 32 | 1005.4 |
| 20260503205548 | 71 | 231 | 0.0 | 7.0 | 0.00 | 0.00 | 0.00 | 34 | 1005.5 |
| 20260503205335 | 71 | 238 | 0.0 | 7.0 | 0.00 | 0.00 | 0.00 | 34 | 1005.5 |
| 20260503205135 | 0 | 0.0 | 0.0 | 0.00 | 0.00 | 0.00 | 1005.5 | ||
| 20260503205103 | 72 | 266 | 0.0 | 10.0 | 0.00 | 0.00 | 0.00 | 33 | 1005.5 |
| 20260503204937 | 72 | 266 | 0.0 | 10.0 | 0.00 | 0.00 | 0.00 | 33 | 1005.5 |
| 20260503204737 | 72 | 266 | 0.0 | 10.0 | 0.00 | 0.00 | 0.00 | 33 | 1005.6 |
| 20260503204602 | 72 | 266 | 0.0 | 10.0 | 0.00 | 0.00 | 0.00 | 33 | 1005.5 |
| 20260503204507 | 72 | 266 | 0.0 | 10.0 | 0.00 | 0.00 | 0.00 | 33 | 1005.5 |
| 20260503204410 | 72 | 266 | 0.0 | 10.0 | 0.00 | 0.00 | 0.00 | 33 | 1005.6 |
| 20260503204059 | 72 | 274 | 0.0 | 7.0 | 0.00 | 0.00 | 0.00 | 38 | 1005.6 |
| 20260503204036 | 72 | 180 | 0.0 | 7.0 | 0.00 | 0.00 | 0.00 | 38 | 1005.6 |
| 20260503203857 | 71 | 8 | 0.0 | 7.0 | 0.00 | 0.00 | 0.00 | 35 | 1005.6 |
| 20260503203648 | 71 | 254 | 0.0 | 7.0 | 0.00 | 0.00 | 0.00 | 35 | 1005.6 |
| 20260503203530 | 71 | 248 | 0.0 | 7.0 | 0.00 | 0.00 | 0.00 | 33 | 1005.6 |
| 20260503203446 | 71 | 245 | 0.0 | 7.0 | 0.00 | 0.00 | 0.00 | 33 | 1005.6 |
| 20260503203238 | 71 | 248 | 0.0 | 7.0 | 0.00 | 0.00 | 0.00 | 32 | 1005.7 |
| 20260503203034 | 71 | 6 | 0.0 | 5.0 | 0.00 | 0.00 | 0.00 | 35 | 1005.7 |
| 20260503202833 | 71 | 244 | 0.0 | 5.0 | 0.00 | 0.00 | 0.00 | 32 | 1005.7 |
| 20260503202736 | 72 | 266 | 0.0 | 5.0 | 0.00 | 0.00 | 0.00 | 32 | 1005.8 |
| 20260503202531 | 72 | 266 | 0.0 | 5.0 | 0.00 | 0.00 | 0.00 | 32 | 1005.9 |
| 20260503202432 | 72 | 266 | 0.0 | 5.0 | 0.00 | 0.00 | 0.00 | 32 | 1005.8 |